Tracking 20083 objects as of 8-Dec-2019
HD Live streaming from Space Station
objects crossing your sky now

EKRAN 10

Track EKRAN 10 now!
EKRAN 10 is classified as:


NORAD ID: 13878
Int'l Code: 1983-016A
Perigee: 37,170.9 km
Apogee: 37,489.3 km
Inclination: 15.1 °
Period: 1,515.3 minutes
Semi major axis: 43701 km
RCS: 6.5767 m2 (large)
Launch date: March 12, 1983
Source: Commonwealth of Independent States (former USSR) (CIS)
Launch site: TYURATAM MISSILE AND SPACE COMPLEX (TTMTR)
aabbcc
Your satellite tracking list
Your tracking list is empty




NASA's NSSDC Master Catalog

Two Line Element Set (TLE):
1 13878U 83016A   19341.77163081 -.00000136 +00000-0 +00000-0 0  9997
2 13878 015.0893 330.5242 0036434 332.5686 198.0506 00.95030860096529
Source of the keplerian elements: AFSPC